CZ-3B R/B, 45345

Orbit data source: Space-Track

CZ-3B R/B, 45345 is space debris in HEO originally from a launch on Mon, 09 Mar 2020 UTC launched from the Xichang Space Center, China (XSC). Debris objects in space refer to the collection of defunct objects orbiting the Earth. Examples of debris include non-operational satellites, rocket bodies, and fragments generated from explosions, collisions, or faulty payload assembly.

Loading next visibility...
CZ-3B R/B details
Identifier
45345, 2020-017B
Orbit
HEO
Last TLE update6 hours ago
Origin
Flag of CNCASC (CN / PRC)
ManufacturerCALT
MissionSpacecraft
Bus & MotorCZ-3A STAGE 3, Unknown motor
Mass~2,800 kg wet, ~2,800 kg dry
Launch date (UTC)
2020-03-09 (5 years ago)
Launch vehicleUnknown
Launch site
Xichang Space Center, China (XSC)
Object type
Payload
Rocket body
Debris
Shape & HBRCyl + 1 Nozzle, 12.38 m
Radar Cross Section32.704 m², Large (>1 m²)

Expand to show TLE details & history

TLE from 6 hours ago
0 CZ-3B R/B
1 45345U 20017B   24339.14646574  .00284819  67526-6  14493-2 0  9996
2 45345  28.0719 354.5065 5202472 127.5225 292.1344  5.45668807 58247
Epoch: 2024-12-04T03:30Z
Definitive object data (Epoch: 2024-12-04T03:30:54.639Z)
Latitude-0°
Longitude-131.66541°
Altitude8,157.887 km
Speed5.06 km/s
True Right ascension23h 38m 01s
True Declination0° 00' 00"
Sunlit
Object was in daylight at TLE epoch
Visualization TLE readout
Latitude-28.09545°
Longitude135.2017°
Altitude10,075.343 km
Speed4.383 km/s
Apparent Right ascension17h 59m 08s
Apparent Declination-32° 08' 60"
Sunlit
Object is in daylight
Visualization observer readout
Local Sidereal Time07:41:55
Azimuth77.496° E
Elevation-67.913°
Doppler factor1
Orbital elements
Apogee altitude14,345.882 km
Perigee altitude161.856 km
Semi-major axis13,632.006 km
Eccentricity0.5202472
Inclination28.0719°
RAAN354.5065°
Arg. of periapsis127.5225°
True anomaly232.51547°
Mean anomaly292.1344°
Eccentric anomaly262.57629°
Mean motion1.36365 °/min
BSTAR0.0014493
Orbital period264 mins
Loading maneuver chart data...
Loading historical data...
Loading historical data...
Loading historical data...
Loading historical data...
Loading historical data...
Loading historical data...
Loading historical data...
Other satellites on launch #17 in the year 2020 (2020-03-09 UTC)

CZ-3B R/B Visibility forecast

Observer location: undefined°, undefined

Span
Click to sort rows by Start time (UTC) header in descending order
Start Az.
Max El. time (UTC)
Max El. Az.
Max El.
End time (UTC)
End Az.
95 mins2024-12-05 00:22:35.166Z202.682° SW2024-12-05 01:38:35.166Z162.633° S26.058°2024-12-05 01:57:35.166Z112.639° SE
18 mins2024-12-05 06:16:35.166Z245.396° WSW2024-12-05 06:30:35.166Z189.829° SSW28.278°2024-12-05 06:34:35.166Z130.521° SE
|